Home > Weather > Copenhagen > Past weeks

Flag for Denmark Past Weather in Copenhagen, Denmark — Yesterday and Last 2 Weeks

Now
63 °F

Sunny.


Feels Like: 63 °F
Forecast: 59 / 69 °F
Wind: 10 mph from South

Location: Koebenhavn-Kastrup Airport

Current Time: Jun 30, 2016 at 7:04:17 AM

Latest Report: Jun 30, 2016 at 6:20 AM


Visibility: 10 mi

Pressure: 29.83 "Hg

Humidity: 73%

Dew Point: 54 °F

Location of CopenhagenLocation

Past Weather in Copenhagen — Graph

°F

Copenhagen Temperature Yesterday

Maximum temperature yesterday: 68 °F (at 4:50 PM)
Minimum temperature yesterday: 55 °F (at 12:50 AM)
Average temperature yesterday: 62 °F

High & Low Weather Summary for the Past Weeks

 TemperatureHumidityPressure
High79 °F (Jun 24, 12:50 PM)100% (Jun 15, 8:20 AM)30.24 "Hg (Jun 15, 8:20 AM)
Low54 °F (Jun 19, 4:20 AM)49% (Jun 19, 2:50 PM)29.50 "Hg (Jun 15, 6:20 AM)
Average64 °F77%29.91 "Hg
* Reported Jun 15 6:20 AM — Jun 30 6:20 AM, Copenhagen, Weather by CustomWeather, © 2016

Note: Actual official high and low records may vary slightly from our data, if they occured in-between our weather recording intervals... More about our weather records

Advertising

Copenhagen Weather History for the Previous 24 Hours

Scroll right to see more
 ConditionsComfort  
Time TempWeatherWind HumidityBarometerVisibility
6:20 AM
Thu, Jun 30
63 °FSunny.10 mph73%29.83 "Hg10 mi
5:20 AM61 °FClear.9 mph72%29.83 "Hg10 mi
4:50 AM59 °FClear.7 mph77%29.83 "Hg10 mi
4:20 AM57 °FPassing clouds.7 mph77%29.83 "HgN/A
3:50 AM59 °FClear.7 mph77%29.83 "Hg10 mi
3:20 AM61 °FClear.5 mph72%29.83 "Hg10 mi
2:50 AM61 °FClear.9 mph77%29.86 "Hg10 mi
2:20 AM59 °FClear.8 mph82%29.86 "Hg10 mi
1:50 AM59 °FClear.8 mph82%29.86 "Hg10 mi
1:20 AM59 °FClear.7 mph82%29.86 "Hg10 mi
12:50 AM59 °FClear.8 mph88%29.86 "Hg10 mi
12:20 AM59 °FClear.9 mph88%29.86 "Hg10 mi
11:50 PM
Wed, Jun 29
61 °FPassing clouds.12 mph77%29.83 "HgN/A
11:20 PM63 °FClear.12 mph73%29.83 "Hg10 mi
10:50 PM63 °FPartly sunny.8 mph77%29.83 "HgN/A
10:20 PM63 °FPartly sunny.7 mph77%29.83 "HgN/A
9:50 PM61 °FScattered clouds.7 mph83%29.83 "HgN/A
9:20 PM63 °FScattered clouds.6 mph73%29.83 "HgN/A
8:50 PM63 °FScattered clouds.10 mph73%29.80 "HgN/A
8:20 PM66 °FScattered clouds.7 mph64%29.80 "HgN/A
7:50 PM64 °FSprinkles. Scattered clouds.7 mph68%29.80 "HgN/A
7:20 PM66 °FSprinkles. Scattered clouds.8 mph73%29.80 "HgN/A
6:50 PM66 °FScattered clouds.10 mph68%29.80 "HgN/A
6:20 PM66 °FScattered clouds.12 mph68%29.80 "HgN/A
5:50 PM66 °FScattered clouds.15 mph68%29.77 "HgN/A
5:20 PM68 °FScattered clouds.12 mph64%29.77 "HgN/A
4:50 PM68 °FScattered clouds.9 mph73%29.77 "HgN/A
4:20 PM66 °FPartly sunny.10 mph78%29.77 "HgN/A
3:50 PM66 °FPartly sunny.7 mph78%29.77 "HgN/A
3:20 PM64 °FBroken clouds.7 mph83%29.77 "HgN/A
2:50 PM64 °FBroken clouds.10 mph88%29.77 "HgN/A
2:20 PM59 °FSprinkles. Partly sunny.5 mph94%29.80 "HgN/A
1:50 PM59 °FSprinkles. Partly sunny.7 mph94%29.80 "Hg3 mi
1:20 PM59 °FSprinkles. Broken clouds.5 mph88%29.80 "HgN/A
12:50 PM59 °FSprinkles. Broken clouds.7 mph88%29.80 "HgN/A
12:20 PM61 °FSprinkles. Broken clouds.7 mph83%29.80 "HgN/A
11:50 AM61 °FSprinkles. Broken clouds.10 mph83%29.80 "HgN/A
11:20 AM61 °FSprinkles. Broken clouds.14 mph88%29.80 "HgN/A
10:50 AM63 °FSprinkles. Broken clouds.14 mph83%29.80 "HgN/A
10:20 AM63 °FSprinkles. Broken clouds.20 mph88%29.80 "HgN/A
9:50 AM64 °FScattered showers. Partly sunny.18 mph78%29.80 "HgN/A
9:20 AM64 °FPartly sunny.17 mph73%29.83 "HgN/A
8:50 AM63 °FBroken clouds.16 mph83%29.83 "HgN/A
8:20 AM63 °FBroken clouds.15 mph83%29.83 "HgN/A
7:50 AM63 °FPartly sunny.16 mph77%29.86 "HgN/A
7:20 AM63 °FPartly sunny.14 mph77%29.86 "HgN/A
Weather by CustomWeather, © 2016

See weather overviewHow to use our weather pages